Location: Coed Ely
(51.5661°N, 3.4150°W)
Time: 02:27:48
(UTC+00:00)

Cosmos 1825 Rocket - Pass Details

Date: 28 January 2021
Orbit: 604 x 630 km, 82.5° (Epoch: 28 February)

Event Time Altitude Azimuth Distance (km) Brightness Sun altitude
Rises 19:20:43 0° 200° (SSW) 2,878 7.3 -22.3°
Reaches altitude 10° 19:22:58 10° 204° (SSW) 1,982 6.4 -22.7°
Maximum altitude 19:27:17 58° 284° (WNW) 734 4.1 -23.3°
Drops below altitude 10° 19:31:42 10° 4° (N) 2,013 6.1 -24.0°
Enters shadow 19:32:35 - 6° (N) 2,364 6.5 -24.2°
